Location: Freiburg+im+Breisgau
(48.0359°N, 7.8195°E)
Time: 23:49:34
(UTC+01:00)

Envisat - Visible Passes

Search period start: 20 November 2017 00:00
Search period end: 30 November 2017 00:00
Orbit: 764 x 766 km, 98.2° (Epoch: 20 November)

Date Brightness Start Highest point End Pass type
(mag) Time Alt. Az. Time Alt. Az. Time Alt. Az.
20 Nov 5.0 19:12:49 14° N 19:12:49 14° N 19:13:42 10° N visible
21 Nov 5.1 18:35:46 11° NNE 18:35:46 11° NNE 18:36:09 10° NNE visible
21 Nov 5.5 20:15:58 13° NNW 20:15:58 13° NNW 20:16:27 10° NNW visible
22 Nov 5.2 19:38:55 14° N 19:38:55 14° N 19:39:36 10° N visible
23 Nov 5.1 19:01:51 13° N 19:01:51 13° N 19:02:24 10° N visible
24 Nov 5.5 20:04:59 12° NNW 20:04:59 12° NNW 20:05:19 10° NNW visible
25 Nov 5.3 19:27:54 12° N 19:27:54 12° N 19:28:23 10° N visible
26 Nov 5.2 18:50:50 11° NNE 18:50:50 11° NNE 18:51:04 10° N visible
27 Nov 5.5 19:53:57 11° N 19:53:57 11° N 19:54:10 10° N visible
28 Nov 5.3 19:16:53 11° N 19:16:53 11° N 19:17:08 10° N visible
